Weather in Kadiivka

Ukraine / Luhansk Region     48°34′05″N   38°38′47″E
temp.,
°C
wind,
m/s
gust,
m/s
humid.,
%
clouds,
%
prec.,
mm/h
press.,
hPa
HPBL,
m
20 april, tue
tue2000:00+10e2378100 0.0 101378
03:00+10e2288100 0.1 101286
06:00+9e3592100 0.0 1009175
09:00+12ese5779100 0.1 1008764
12:00+11se5891100 3.7 1005585
15:00+13se4583100 8.6 1003561
18:00+11s499348 2.0 1002535
21:00+10ssw8138530 2.1 1003879
21 april, wed
wed2100:00+9sw9138798 0.1 1004994
03:00+9wsw9158463 0.4 1008864
06:00+8sw7128678 0.1 1011590
09:00+11wsw710636 0.1 10131098
12:00+14wsw794667 0.0 10142161
15:00+14wsw6846100 0.0 10142006
18:00+13sw4754100 0.1 10161099
21:00+9ssw477719 0.3 1018156
22 april, thu
thu2200:00+8ssw38871 0.0 1019178
03:00+7ssw35905 0.0 1019106
06:00+7ssw35892 0.0 1020101
09:00+13sw46640 0.0 1021688
12:00+16sw45475 0.0 10211887
15:00+17sw4537100 0.0 10202482
18:00+15ssw465284 0.0 1021469
21:00+12s356388 0.0 102286
23 april, fri
fri2300:00+11ssw3673100 0.0 1022181
03:00+11sw3574100 0.0 1022122
06:00+10sw2376100 0.0 102286
09:00+13sw23616 0.1 1022510
12:00+17ssw334358 0.8 10212127
15:00+17sw2341100 0.8 10201638
18:00+16ssw344966 0.0 1020465
21:00+13ssw596359 0.0 1020361
24 april, sat
sat2400:00+9ssw37761 0.0 1019154
03:00+8ssw3676100 0.0 1018122
06:00+8ssw41179100 0.0 1017351
09:00+12ssw71061100 0.0 1016676
12:00+11w8974100 0.4 1016906
15:00+10w696353 0.4 10171170
18:00+11w6105686 0.0 10161373
21:00+6w612502 0.0 1019673